Location: Ambohitantely
(18.9000°S, 47.5333°E)
Time: 07:26:39
(UTC+00:00)

Daily predictions for brighter satellites

Satellite Brightness Start Highest point End
(mag) Time Altitude Azimuth Time Altitude Azimuth Time Altitude Azimuth
Cosmos 2056 Rocket 3.6 14:50:25 10° N 14:55:31 57° ENE 15:00:35 10° SSE
YAOGAN 6 2.6 14:52:06 10° SSE 14:55:49 85° ENE 14:59:30 10° N
AQUARIUS 4.2 14:51:31 10° SSE 14:56:02 69° E 15:00:31 10° N
SMAP 3.1 14:52:32 10° SSE 14:57:15 83° ENE 15:01:54 10° N
DMSP B5D1-3 4.5 14:52:29 10° NNE 14:57:33 73° ESE 15:02:40 10° S
Cosmos 2278 Rocket 4.2 14:53:58 10° NW 14:58:52 30° WSW 15:03:49 10° S
Hubble Space Telescope 2.4 14:57:54 10° WSW 15:01:16 23° S 15:04:38 10° SE
Cosmos 2151 3.0 14:58:58 10° S 15:03:16 87° W 15:07:28 10° N
Meteor 2-3 Rocket 4.2 14:58:20 10° SSE 15:03:37 38° E 15:08:55 10° NNE
USA 116 3.4 15:01:33 10° N 15:04:44 74° WNW 15:07:52 10° SSW
Okean O Rocket 2.4 15:00:35 10° S 15:04:52 56° WSW 15:09:06 10° NNW
GPS 2-18 Rocket1 3.7 15:02:38 10° W 15:06:36 57° NNW 15:10:33 10° ENE
Atlas Centaur 2 3.3 15:05:06 10° SW 15:07:05 14° S 15:09:01 10° SSE
CZ-4 R/B 3.1 15:06:53 10° ESE 15:08:46 13° E 15:10:39 10° NE
Lacrosse 5 rocket 3.4 15:06:12 10° WNW 15:09:07 22° SW 15:12:00 10° S
IRS-1C Rocket 4.5 15:06:26 10° SSE 15:11:28 43° E 15:16:27 10° N
APEX 4.4 15:06:59 10° N 15:12:39 74° ENE 15:19:28 10° SSE
Feng Yun 1-1 Rocket 4.4 15:08:34 10° SSE 15:14:19 56° ENE 15:19:53 10° N
Cosmos 1869 3.2 15:13:00 10° N 15:16:58 72° E 15:20:55 10° S
Cosmos 371 Rocket 3.5 15:14:02 10° N 15:18:39 49° ENE 15:23:19 10° SSE
Cosmos 1452 Rocket 4.4 15:14:58 10° NNE 15:19:22 28° E 15:23:48 10° SE
MOS 1 Rocket 3.8 15:15:08 10° NE 15:19:52 40° ESE 15:24:23 10° S
CENTAUR R/B 3.7 15:20:31 10° SSE 15:22:46 13° SE 15:22:46 13° SE
Cosmos 2369 Rocket 3.3 15:20:14 10° NNE 15:24:39 23° ENE 15:27:36 16° ESE
BREEZE-M DEB (TANK) 1.9 15:23:01 10° SSW 15:25:29 51° SE 15:27:37 13° NE
RESURS DK-1 2.7 15:23:55 10° N 15:27:53 44° ENE 15:31:22 13° SE
Cosmos 2221 2.6 15:26:44 10° N 15:31:00 79° W 15:35:20 10° S
Cosmos 1833 Rocket 2.8 15:28:23 10° S 15:33:51 50° ESE 15:39:14 10° NE
Helios 1A Rocket 2.8 15:30:14 10° SSE 15:34:22 85° ENE 15:38:26 10° N
H-2A R/B 3.9 15:31:54 10° WSW 15:36:26 40° S 15:48:14 17° ESE
COSMOS 2455 2.8 15:32:17 10° NNW 15:38:17 85° ENE 15:44:19 10° SSE
CZ-2C R/B 3.1 15:34:24 10° NE 15:39:19 39° ESE 15:44:21 10° S
Cosmos 2297 4.3 15:35:17 10° NNW 15:40:47 57° WSW 15:46:20 10° S
CZ-3 Stage 3 3.1 15:36:06 10° W 15:43:04 40° SSW 15:44:47 22° SSE
Cosmos 1867 3.5 15:38:02 10° SSW 15:43:21 58° ESE 15:48:38 10° NE
Cosmos 2251 Rocket 4.4 15:38:31 10° SSW 15:43:36 51° WNW 15:48:38 10° N
CREW DRAGON DEMO-1 DEB 2.7 15:43:33 10° NNW 15:46:35 70° NE 15:47:05 55° ESE
CZ-2D R/B 3.2 15:44:07 18° SSE 15:46:47 55° E 15:50:30 10° N
Delta 2 Rocket 4.3 15:41:22 10° WSW 15:48:19 82° SSE 15:53:55 23° ENE
NOSS 3-2 (A) 3.2 15:43:08 10° SSW 15:48:47 56° ESE 15:54:02 10° NE
CZ-4C R/B 3.2 15:41:40 10° N 15:49:58 56° ENE 15:55:49 19° SE
Centaur AC-119 3.3 15:42:33 10° WSW 15:52:05 43° S 15:53:21 33° SE
Cosmos 1420 Rocket 4.3 15:47:19 10° NNW 15:52:33 70° WSW 15:57:49 10° S
GPS 2-04 Rocket1 2.8 15:49:05 10° NW 15:52:42 45° NE 15:53:06 43° ENE
Cosmos 1939 Rocket 2.8 15:49:50 10° S 15:53:48 82° W 15:57:40 10° NNW
SEDSat Delta rocket 2.7 15:50:05 10° WNW 15:54:10 82° NNE 15:55:24 45° ESE
NOSS 3-2 (C) 3.8 15:49:14 10° S 15:54:24 32° ESE 15:54:38 32° ESE
Cosmos 1943 Rocket 2.0 15:51:19 10° NNW 15:56:50 86° ENE 16:01:37 14° SSE
SWIFT 2.7 15:56:58 10° WNW 16:01:08 52° NNE 16:01:50 46° NE
DMSP B5D2-2 4.0 15:57:12 10° NNE 16:02:24 66° ESE 16:07:40 10° S
Cosmos 614 Rocket 3.8 15:58:21 10° SSW 16:03:28 89° ESE 16:08:33 10° NNE
YAOGAN 1 2.4 16:02:02 40° SSE 16:03:29 66° ENE 16:07:45 10° N
Cosmos 1633 3.2 16:01:48 10° SSW 16:05:20 54° W 16:08:50 10° N
GPS 2-12 Rocket1 2.8 16:01:47 10° WNW 16:06:14 80° N 16:06:52 64° ENE
Cosmos 2366 rocket 4.0 16:00:47 10° S 16:07:13 89° E 16:13:31 10° N
Milstar 3 4.3 15:59:54 10° NNW 16:08:00 43° NE 16:13:39 30° E
Milstar 3 Cent rocket 3.0 16:07:06 10° WSW 16:11:35 28° S 16:12:16 27° S
Delta 198 3.5 16:12:51 10° W 16:16:36 62° SSW 16:16:36 62° SSW
deb Centaur AC-2 4.1 16:12:51 10° WSW 16:17:24 77° SSE 16:17:37 75° ESE
ASTRO E2 3.0 16:14:24 10° WNW 16:17:50 64° NW 16:17:50 64° NW
Cosmos 304 Rocket 3.9 16:16:11 10° NNW 16:20:56 70° WSW 16:22:28 42° S
Delta 168 4.4 16:16:30 10° W 16:22:24 61° S 16:24:44 45° SE
Cosmos 1743 Rocket 3.9 16:18:35 10° SSW 16:22:55 62° W 16:27:15 10° N
Okean-O 4.0 16:19:31 10° S 16:23:40 38° WSW 16:27:47 10° NW
CSL-04 Rocket 3.5 16:25:44 72° ENE 16:25:44 72° ENE 16:30:59 10° N
CZ-2C R/B 3.8 16:28:05 39° NNE 16:28:05 39° NNE 16:31:21 10° N
Cosmos 2082 Rocket 2.1 16:20:45 10° SSW 16:26:32 90° ENE 16:31:03 17° NNE
SL-08 R/B 4.5 16:27:13 10° S 16:33:43 88° W 16:40:03 10° N
Intelsat 5-1 Rocket 3.0 16:24:33 10° W 16:34:07 53° SSW 16:34:12 53° S
Cosmos 1190 Rocket 4.4 16:37:40 10° SSW 16:42:15 60° WSW 16:42:15 60° WSW
Hubble Space Telescope 3.4 16:39:46 10° SW 16:40:40 14° SW 16:40:40 14° SW
USA 238 DEB 4.4 16:37:03 10° SW 16:43:27 50° WNW 16:49:42 10° N
USA 238 4.3 16:37:10 10° SW 16:43:34 50° WNW 16:49:49 10° N
CZ-4 R/B 3.6 16:42:30 19° SW 16:43:38 22° WSW 16:46:39 10° NW
H-2A R/B 4.0 17:01:42 23° NNW 17:01:42 23° NNW 17:03:34 10° NNW
Cosmos 2369 Rocket 3.9 17:03:31 10° NW 17:08:22 29° WSW 17:09:30 27° SW
CENTAUR R/B 4.2 17:08:27 10° SW 17:10:04 19° SW 17:10:04 19° SW
